Terminal Aerodrome Forecast
Issued by NWS

Home | Current Version | Previous Version | Text Only | Print | Product List | Glossary On
Versions: 1 2 3 4 5 6 7 8 9 10 11 12 13 14 15 16 17 18 19 20 21 22 23 24 25 26 27 28
000
FTAK31 PANC 051139
TAFAIL
TAF
PAIL 051139Z 0512/0612 12011KT P6SM BKN070
     FM051800 06014G22KT P6SM -SHRA SCT060 BKN100
     FM060600 06008KT P6SM -RA BKN050=

USA.gov is the U.S. government's official web portal to all federal, state and local government web resources and services.